START_TIME,STEP,MOV.,A46,t_acc.,A13,t_acc.,M47,t_acc.,A17,t_acc.,A28,t_acc.,M38,t_acc.
1979-03-09 15:00:22.570 ,4,1,,0,8.,4.8,0.,4.8,,0,0.,4.8,0.,4.8
1979-03-09 15:00:27.370 ,4,1,,0,16.,4.8,3.,4.8,,0,0.,4.8,4.,4.8
1979-03-09 15:00:32.170 ,4,1,,0,24.,4.8,7.,4.8,,0,0.,4.8,12.,4.8
1979-03-09 15:00:36.970 ,4,1,,0,0.,4.8,0.,4.8,,0,0.,4.8,10.,4.8
1979-03-09 15:00:41.770 ,4,1,,0,0.,4.8,0.,4.8,,0,0.,4.8,13.,4.8
1979-03-09 15:00:46.570 ,0,1,,0,0.,4.8,0.,4.8,,0,0.,4.8,12.,4.8
1979-03-09 15:00:51.370 ,0,1,,0,0.,4.8,0.,4.8,,0,0.,4.8,14.,4.8
1979-03-09 15:00:56.170 ,0,1,,0,3.,4.8,1.,4.8,,0,0.,4.8,1.,4.8
1979-03-09 15:01:00.970 ,0,1,,0,2.,4.8,0.,4.8,,0,0.,4.8,2.,4.8
1979-03-09 15:01:05.770 ,0,1,,0,1.,4.8,0.,4.8,,0,0.,4.8,2.,4.8
1979-03-09 15:01:10.570 ,3,1,,0,5.,4.8,0.,4.8,,0,0.,4.8,0.,4.8
1979-03-09 15:01:15.370 ,3,1,,0,12.,4.8,2.,4.8,,0,0.,4.8,3.,4.8
1979-03-09 15:01:20.170 ,3,1,,0,23.,4.8,5.,4.8,,0,0.,4.8,7.,4.8
1979-03-09 15:01:24.970 ,3,1,,0,0.,4.8,0.,4.8,,0,0.,4.8,10.,4.8
1979-03-09 15:01:29.770 ,3,1,,0,0.,4.8,0.,4.8,,0,0.,4.8,19.,4.8
1979-03-09 15:01:34.570 ,7,1,,0,0.,4.8,0.,4.8,,0,0.,4.8,18.,4.8
1979-03-09 15:01:39.370 ,7,1,,0,0.,4.8,0.,4.8,,0,0.,4.8,10.,4.8
1979-03-09 15:01:44.170 ,7,1,,0,2.,4.8,1.,4.8,,0,0.,4.8,7.,4.8
1979-03-09 15:01:48.970 ,7,1,,0,4.,4.8,0.,4.8,,0,0.,4.8,2.,4.8
1979-03-09 15:01:53.770 ,7,1,,0,5.,4.8,0.,4.8,,0,0.,4.8,0.,4.8
1979-03-09 15:01:58.570 ,4,1,,0,9.,4.8,3.,4.8,,0,0.,4.8,0.,4.8
1979-03-09 15:02:03.370 ,4,1,,0,12.,4.8,5.,4.8,,0,0.,4.8,4.,4.8
1979-03-09 15:02:08.170 ,4,1,,0,26.,4.8,5.,4.8,,0,0.,4.8,6.,4.8
1979-03-09 15:02:12.970 ,4,1,,0,0.,4.8,0.,4.8,,0,0.,4.8,12.,4.8
1979-03-09 15:02:17.770 ,4,1,,0,0.,4.8,0.,4.8,,0,0.,4.8,8.,4.8
1979-03-09 15:02:22.570 ,0,1,,0,0.,4.8,0.,4.8,,0,0.,4.8,9.,4.8
1979-03-09 15:02:27.370 ,0,1,,0,0.,4.8,0.,4.8,,0,0.,4.8,7.,4.8
1979-03-09 15:02:32.170 ,0,1,,0,1.,4.8,0.,4.8,,0,0.,4.8,2.,4.8
1979-03-09 15:02:36.970 ,0,1,,0,5.,4.8,1.,4.8,,0,0.,4.8,0.,4.8
1979-03-09 15:02:41.770 ,0,1,,0,4.,4.8,0.,4.8,,0,0.,4.8,2.,4.8
1979-03-09 15:02:46.570 ,3,1,,0,3.,4.8,0.,4.8,,0,0.,4.8,5.,4.8
1979-03-09 15:02:51.370 ,3,1,,0,7.,4.8,0.,4.8,,0,0.,4.8,2.,4.8
1979-03-09 15:02:56.170 ,3,1,,0,13.,4.8,3.,4.8,,0,0.,4.8,9.,4.8
1979-03-09 15:03:00.970 ,3,1,,0,0.,4.8,0.,4.8,,0,0.,4.8,9.,4.8
1979-03-09 15:03:05.770 ,3,1,,0,0.,4.8,0.,4.8,,0,0.,4.8,17.,4.8
1979-03-09 15:03:10.570 ,7,1,,0,0.,4.8,0.,4.8,,0,0.,4.8,21.,4.8
1979-03-09 15:03:15.370 ,7,1,,0,0.,4.8,0.,4.8,,0,0.,4.8,13.,4.8
1979-03-09 15:03:20.170 ,7,1,,0,2.,4.8,0.,4.8,,0,0.,4.8,2.,4.8
1979-03-09 15:03:24.970 ,7,1,,0,13.,4.8,0.,4.8,,0,0.,4.8,4.,4.8
1979-03-09 15:03:29.770 ,7,1,,0,3.,4.8,0.,4.8,,0,0.,4.8,0.,4.8
1979-03-09 15:03:34.570 ,4,1,,0,7.,4.8,3.,4.8,,0,0.,4.8,2.,4.8
1979-03-09 15:03:39.370 ,4,1,,0,17.,4.8,4.,4.8,,0,0.,4.8,11.,4.8
1979-03-09 15:03:44.170 ,4,1,,0,22.,4.8,7.,4.8,,0,0.,4.8,15.,4.8
1979-03-09 15:03:48.970 ,4,1,,0,0.,4.8,0.,4.8,,0,0.,4.8,13.,4.8
1979-03-09 15:03:53.770 ,4,1,,0,0.,4.8,0.,4.8,,0,0.,4.8,19.,4.8
1979-03-09 15:03:58.570 ,0,1,,0,0.,4.8,0.,4.8,,0,0.,4.8,11.,4.8
1979-03-09 15:04:03.370 ,0,1,,0,0.,4.8,0.,4.8,,0,0.,4.8,12.,4.8
1979-03-09 15:04:08.170 ,0,1,,0,0.,4.8,0.,4.8,,0,0.,4.8,4.,4.8
1979-03-09 15:04:12.970 ,0,1,,0,5.,4.8,1.,4.8,,0,0.,4.8,1.,4.8
1979-03-09 15:04:17.770 ,0,1,,0,6.,4.8,1.,4.8,,0,0.,4.8,0.,4.8
1979-03-09 15:04:22.570 ,3,1,,0,5.,4.8,0.,4.8,,0,0.,4.8,1.,4.8
1979-03-09 15:04:27.370 ,3,1,,0,9.,4.8,1.,4.8,,0,0.,4.8,3.,4.8
1979-03-09 15:04:32.170 ,3,1,,0,12.,4.8,1.,4.8,,0,0.,4.8,4.,4.8
1979-03-09 15:04:36.960 ,3,1,,0,0.,4.8,0.,4.8,,0,0.,4.8,12.,4.8
1979-03-09 15:04:41.770 ,3,1,,0,0.,4.8,0.,4.8,,0,0.,4.8,11.,4.8
1979-03-09 15:04:46.560 ,7,1,,0,0.,4.8,0.,4.8,,0,0.,4.8,11.,4.8
1979-03-09 15:04:51.360 ,7,1,,0,1.,4.8,0.,4.8,,0,0.,4.8,16.,4.8
1979-03-09 15:04:56.160 ,7,1,,0,3.,4.8,0.,4.8,,0,0.,4.8,5.,4.8
1979-03-09 15:05:00.960 ,7,1,,0,4.,4.8,2.,4.8,,0,0.,4.8,4.,4.8
1979-03-09 15:05:05.760 ,7,1,,0,5.,4.8,0.,4.8,,0,0.,4.8,0.,4.8
1979-03-09 15:05:10.560 ,4,1,,0,5.,4.8,1.,4.8,,0,0.,4.8,2.,4.8
1979-03-09 15:05:15.360 ,4,1,,0,16.,4.8,2.,4.8,,0,0.,4.8,6.,4.8
1979-03-09 15:05:20.160 ,4,1,,0,22.,4.8,7.,4.8,,0,0.,4.8,16.,4.8
1979-03-09 15:05:24.960 ,4,1,,0,0.,4.8,0.,4.8,,0,0.,4.8,12.,4.8
1979-03-09 15:05:29.760 ,4,1,,0,0.,4.8,0.,4.8,,0,0.,4.8,8.,4.8
1979-03-09 15:05:34.560 ,0,1,,0,1.,4.8,0.,4.8,,0,0.,4.8,15.,4.8
1979-03-09 15:05:39.360 ,0,1,,0,0.,4.8,0.,4.8,,0,0.,4.8,9.,4.8
1979-03-09 15:05:44.160 ,0,1,,0,2.,4.8,0.,4.8,,0,0.,4.8,3.,4.8
1979-03-09 15:05:48.960 ,0,1,,0,6.,4.8,1.,4.8,,0,0.,4.8,1.,4.8
1979-03-09 15:05:53.760 ,0,1,,0,6.,4.8,0.,4.8,,0,0.,4.8,0.,4.8
1979-03-09 15:05:58.560 ,3,1,,0,4.,4.8,1.,4.8,,0,0.,4.8,1.,4.8
1979-03-09 15:06:03.360 ,3,1,,0,2.,4.8,0.,4.8,,0,0.,4.8,2.,4.8
1979-03-09 15:06:08.160 ,3,1,,0,19.,4.8,4.,4.8,,0,0.,4.8,10.,4.8
1979-03-09 15:06:12.960 ,3,1,,0,0.,4.8,0.,4.8,,0,0.,4.8,6.,4.8
1979-03-09 15:06:17.760 ,3,1,,0,0.,4.8,0.,4.8,,0,0.,4.8,11.,4.8
1979-03-09 15:06:22.560 ,7,1,,0,0.,4.8,0.,4.8,,0,0.,4.8,15.,4.8
1979-03-09 15:06:27.360 ,7,1,,0,0.,4.8,0.,4.8,,0,0.,4.8,14.,4.8
1979-03-09 15:06:32.160 ,7,1,,0,5.,4.8,1.,4.8,,0,0.,4.8,10.,4.8
1979-03-09 15:06:36.960 ,7,1,,0,9.,4.8,0.,4.8,,0,0.,4.8,3.,4.8
1979-03-09 15:06:41.760 ,7,1,,0,5.,4.8,0.,4.8,,0,0.,4.8,0.,4.8
1979-03-09 15:06:46.560 ,4,1,,0,11.,4.8,1.,4.8,,0,0.,4.8,3.,4.8
1979-03-09 15:06:51.360 ,4,1,,0,23.,4.8,6.,4.8,,0,0.,4.8,14.,4.8
1979-03-09 15:06:56.160 ,4,1,,0,26.,4.8,8.,4.8,,0,0.,4.8,11.,4.8
1979-03-09 15:07:00.960 ,4,1,,0,0.,4.8,0.,4.8,,0,0.,4.8,16.,4.8
1979-03-09 15:07:05.760 ,4,1,,0,0.,4.8,0.,4.8,,0,0.,4.8,9.,4.8
1979-03-09 15:07:10.560 ,0,1,,0,0.,4.8,0.,4.8,,0,0.,4.8,16.,4.8
1979-03-09 15:07:15.360 ,0,1,,0,0.,4.8,0.,4.8,,0,0.,4.8,5.,4.8
1979-03-09 15:07:20.160 ,0,1,,0,1.,4.8,1.,4.8,,0,0.,4.8,3.,4.8
1979-03-09 15:07:24.960 ,0,1,,0,6.,4.8,0.,4.8,,0,0.,4.8,1.,4.8
1979-03-09 15:07:29.760 ,0,1,,0,4.,4.8,0.,4.8,,0,0.,4.8,1.,4.8
1979-03-09 15:07:34.560 ,3,1,,0,11.,4.8,3.,4.8,,0,0.,4.8,5.,4.8
1979-03-09 15:07:39.360 ,3,1,,0,10.,4.8,0.,4.8,,0,0.,4.8,5.,4.8
1979-03-09 15:07:44.160 ,3,1,,0,19.,4.8,3.,4.8,,0,0.,4.8,9.,4.8
1979-03-09 15:07:48.960 ,3,1,,0,0.,4.8,0.,4.8,,0,0.,4.8,13.,4.8
1979-03-09 15:07:53.760 ,3,1,,0,0.,4.8,0.,4.8,,0,0.,4.8,11.,4.8
1979-03-09 15:07:58.560 ,7,1,,0,0.,4.8,0.,4.8,,0,0.,4.8,10.,4.8
1979-03-09 15:08:03.360 ,7,1,,0,0.,4.8,0.,4.8,,0,0.,4.8,12.,4.8
1979-03-09 15:08:08.160 ,7,1,,0,6.,4.8,1.,4.8,,0,0.,4.8,7.,4.8
1979-03-09 15:08:12.960 ,7,1,,0,3.,4.8,0.,4.8,,0,0.,4.8,0.,4.8
1979-03-09 15:08:17.760 ,7,1,,0,3.,4.8,0.,4.8,,0,0.,4.8,0.,4.8
1979-03-09 15:08:22.560 ,4,1,,0,10.,4.8,1.,4.8,,0,0.,4.8,0.,4.8
1979-03-09 15:08:27.360 ,4,1,,0,14.,4.8,3.,4.8,,0,0.,4.8,4.,4.8
1979-03-09 15:08:32.160 ,4,1,,0,20.,4.8,4.,4.8,,0,0.,4.8,9.,4.8
1979-03-09 15:08:36.960 ,4,1,,0,0.,4.8,0.,4.8,,0,0.,4.8,12.,4.8
1979-03-09 15:08:41.760 ,4,1,,0,0.,4.8,0.,4.8,,0,0.,4.8,12.,4.8
1979-03-09 15:08:46.560 ,0,1,,0,0.,4.8,0.,4.8,,0,0.,4.8,16.,4.8
1979-03-09 15:08:51.360 ,0,1,,0,0.,4.8,0.,4.8,,0,0.,4.8,11.,4.8
1979-03-09 15:08:56.160 ,0,1,,0,0.,4.8,0.,4.8,,0,0.,4.8,6.,4.8
1979-03-09 15:09:00.960 ,0,1,,0,8.,4.8,1.,4.8,,0,0.,4.8,2.,4.8
1979-03-09 15:09:05.760 ,0,1,,0,2.,4.8,1.,4.8,,0,0.,4.8,3.,4.8
1979-03-09 15:09:10.560 ,3,1,,0,9.,4.8,1.,4.8,,0,0.,4.8,2.,4.8
1979-03-09 15:09:15.360 ,3,1,,0,6.,4.8,0.,4.8,,0,0.,4.8,4.,4.8
1979-03-09 15:09:20.160 ,3,1,,0,22.,4.8,5.,4.8,,0,0.,4.8,10.,4.8
1979-03-09 15:09:24.960 ,3,1,,0,0.,4.8,0.,4.8,,0,0.,4.8,10.,4.8
1979-03-09 15:09:29.760 ,3,1,,0,0.,4.8,0.,4.8,,0,0.,4.8,15.,4.8
1979-03-09 15:09:34.560 ,7,1,,0,0.,4.8,0.,4.8,,0,0.,4.8,14.,4.8
1979-03-09 15:09:39.360 ,7,1,,0,0.,4.8,0.,4.8,,0,0.,4.8,17.,4.8
1979-03-09 15:09:44.160 ,7,1,,0,2.,4.8,0.,4.8,,0,0.,4.8,5.,4.8
1979-03-09 15:09:48.960 ,7,1,,0,3.,4.8,1.,4.8,,0,0.,4.8,0.,4.8
1979-03-09 15:09:53.760 ,7,1,,0,4.,4.8,0.,4.8,,0,0.,4.8,0.,4.8
1979-03-09 15:09:58.560 ,0,0,,0,8.,4.8,1.,4.8,,0,0.,4.8,1.,4.8
1979-03-09 15:10:03.360 ,0,0,,0,20.,4.8,3.,4.8,,0,0.,4.8,9.,4.8
1979-03-09 15:10:08.160 ,0,0,,0,14.,4.8,2.,4.8,,0,0.,4.8,13.,4.8
1979-03-09 15:10:12.960 ,0,0,,0,0.,4.8,0.,4.8,,0,0.,4.8,9.,4.8
1979-03-09 15:10:17.760 ,0,0,,0,0.,4.8,0.,4.8,,0,0.,4.8,9.,4.8
1979-03-09 15:10:47.160 ,0,0,,0,4.,4.8,0.,4.8,,0,0.,4.8,1.,4.8
1979-03-09 15:10:51.960 ,0,0,,0,10.,4.8,2.,4.8,,0,0.,4.8,3.,4.8
1979-03-09 15:10:56.760 ,0,0,,0,25.,4.8,2.,4.8,,0,0.,4.8,10.,4.8
1979-03-09 15:11:01.560 ,0,0,,0,0.,4.8,0.,4.8,,0,0.,4.8,14.,4.8
1979-03-09 15:11:06.360 ,0,0,,0,0.,4.8,0.,4.8,,0,0.,4.8,12.,4.8
1979-03-09 15:11:10.560 ,7,1,,0,0.,4.8,0.,4.8,,0,0.,4.8,11.,4.8
1979-03-09 15:11:15.360 ,7,1,,0,0.,4.8,0.,4.8,,0,0.,4.8,9.,4.8
1979-03-09 15:11:20.160 ,7,1,,0,1.,4.8,0.,4.8,,0,0.,4.8,6.,4.8
1979-03-09 15:11:24.960 ,7,1,,0,8.,4.8,1.,4.8,,0,0.,4.8,3.,4.8
1979-03-09 15:11:29.760 ,7,1,,0,5.,4.8,0.,4.8,,0,0.,4.8,0.,4.8
1979-03-09 15:11:34.560 ,4,1,,0,4.,4.8,0.,4.8,,0,0.,4.8,1.,4.8
1979-03-09 15:11:39.360 ,4,1,,0,13.,4.8,2.,4.8,,0,0.,4.8,10.,4.8
1979-03-09 15:11:44.160 ,4,1,,0,23.,4.8,3.,4.8,,0,0.,4.8,9.,4.8
1979-03-09 15:11:48.960 ,4,1,,0,0.,4.8,0.,4.8,,0,0.,4.8,7.,4.8
1979-03-09 15:11:53.760 ,4,1,,0,0.,4.8,0.,4.8,,0,0.,4.8,9.,4.8
1979-03-09 15:11:58.560 ,0,1,,0,0.,4.8,0.,4.8,,0,0.,4.8,16.,4.8
1979-03-09 15:12:03.360 ,0,1,,0,0.,4.8,0.,4.8,,0,0.,4.8,13.,4.8
1979-03-09 15:12:08.160 ,0,1,,0,3.,4.8,2.,4.8,,0,0.,4.8,5.,4.8
1979-03-09 15:12:12.960 ,0,1,,0,9.,4.8,1.,4.8,,0,0.,4.8,3.,4.8
1979-03-09 15:12:17.760 ,0,1,,0,3.,4.8,1.,4.8,,0,0.,4.8,2.,4.8
1979-03-09 15:12:22.560 ,3,1,,0,4.,4.8,0.,4.8,,0,0.,4.8,1.,4.8
1979-03-09 15:12:27.360 ,3,1,,0,10.,4.8,3.,4.8,,0,0.,4.8,3.,4.8
1979-03-09 15:12:32.160 ,3,1,,0,17.,4.8,2.,4.8,,0,0.,4.8,11.,4.8
1979-03-09 15:12:36.960 ,3,1,,0,0.,4.8,0.,4.8,,0,0.,4.8,15.,4.8
1979-03-09 15:12:41.760 ,3,1,,0,0.,4.8,0.,4.8,,0,0.,4.8,19.,4.8
1979-03-09 15:12:46.550 ,7,1,,0,0.,4.8,0.,4.8,,0,0.,4.8,15.,4.8
1979-03-09 15:12:51.350 ,7,1,,0,0.,4.8,0.,4.8,,0,0.,4.8,6.,4.8
1979-03-09 15:12:56.150 ,7,1,,0,6.,4.8,1.,4.8,,0,0.,4.8,3.,4.8
1979-03-09 15:13:00.960 ,7,1,,0,12.,4.8,3.,4.8,,0,0.,4.8,0.,4.8
1979-03-09 15:13:05.760 ,7,1,,0,8.,4.8,0.,4.8,,0,0.,4.8,0.,4.8
1979-03-09 15:13:10.550 ,4,1,,0,10.,4.8,2.,4.8,,0,0.,4.8,1.,4.8
1979-03-09 15:13:15.350 ,4,1,,0,13.,4.8,1.,4.8,,0,0.,4.8,4.,4.8
1979-03-09 15:13:20.160 ,4,1,,0,10.,4.8,0.,4.8,,0,0.,4.8,12.,4.8
1979-03-09 15:13:24.960 ,4,1,,0,0.,4.8,0.,4.8,,0,0.,4.8,7.,4.8
1979-03-09 15:13:29.760 ,4,1,,0,1.,4.8,0.,4.8,,0,0.,4.8,10.,4.8
1979-03-09 15:13:34.550 ,0,1,,0,0.,4.8,0.,4.8,,0,0.,4.8,15.,4.8
1979-03-09 15:13:39.350 ,0,1,,0,0.,4.8,0.,4.8,,0,0.,4.8,7.,4.8
1979-03-09 15:13:44.150 ,0,1,,0,2.,4.8,1.,4.8,,0,0.,4.8,0.,4.8
1979-03-09 15:13:48.960 ,0,1,,0,5.,4.8,0.,4.8,,0,0.,4.8,0.,4.8
1979-03-09 15:13:53.760 ,0,1,,0,2.,4.8,0.,4.8,,0,0.,4.8,0.,4.8
1979-03-09 15:13:58.550 ,3,1,,0,3.,4.8,0.,4.8,,0,0.,4.8,4.,4.8
1979-03-09 15:14:03.350 ,3,1,,0,5.,4.8,2.,4.8,,0,0.,4.8,1.,4.8
1979-03-09 15:14:08.160 ,3,1,,0,18.,4.8,2.,4.8,,0,0.,4.8,9.,4.8
1979-03-09 15:14:12.960 ,3,1,,0,0.,4.8,0.,4.8,,0,0.,4.8,9.,4.8
1979-03-09 15:14:17.760 ,3,1,,0,0.,4.8,0.,4.8,,0,0.,4.8,12.,4.8
1979-03-09 15:14:22.550 ,7,1,,0,0.,4.8,0.,4.8,,0,0.,4.8,13.,4.8
1979-03-09 15:14:27.350 ,7,1,,0,0.,4.8,0.,4.8,,0,0.,4.8,4.,4.8
1979-03-09 15:14:32.150 ,7,1,,0,0.,4.8,0.,4.8,,0,0.,4.8,8.,4.8
1979-03-09 15:14:36.950 ,7,1,,0,9.,4.8,0.,4.8,,0,0.,4.8,1.,4.8
1979-03-09 15:14:41.750 ,7,1,,0,4.,4.8,0.,4.8,,0,0.,4.8,0.,4.8
1979-03-09 15:14:46.550 ,4,1,,0,5.,4.8,1.,4.8,,0,0.,4.8,1.,4.8
1979-03-09 15:14:51.350 ,4,1,,0,9.,4.8,2.,4.8,,0,0.,4.8,2.,4.8
1979-03-09 15:14:56.150 ,4,1,,0,18.,4.8,1.,4.8,,0,0.,4.8,7.,4.8
1979-03-09 15:15:00.950 ,4,1,,0,0.,4.8,0.,4.8,,0,0.,4.8,10.,4.8
1979-03-09 15:15:05.750 ,4,1,,0,0.,4.8,0.,4.8,,0,0.,4.8,16.,4.8
1979-03-09 15:15:10.550 ,0,1,,0,1.,4.8,0.,4.8,,0,0.,4.8,12.,4.8
1979-03-09 15:15:15.350 ,0,1,,0,0.,4.8,0.,4.8,,0,0.,4.8,13.,4.8
1979-03-09 15:15:20.150 ,0,1,,0,2.,4.8,1.,4.8,,0,0.,4.8,3.,4.8
1979-03-09 15:15:24.950 ,0,1,,0,3.,4.8,0.,4.8,,0,0.,4.8,1.,4.8
1979-03-09 15:15:29.750 ,0,1,,0,5.,4.8,0.,4.8,,0,0.,4.8,0.,4.8
1979-03-09 15:15:34.550 ,3,1,,0,6.,4.8,1.,4.8,,0,0.,4.8,5.,4.8
1979-03-09 15:15:39.350 ,3,1,,0,12.,4.8,2.,4.8,,0,0.,4.8,3.,4.8
1979-03-09 15:15:44.150 ,3,1,,0,16.,4.8,4.,4.8,,0,0.,4.8,11.,4.8
1979-03-09 15:15:48.950 ,3,1,,0,0.,4.8,0.,4.8,,0,0.,4.8,6.,4.8
1979-03-09 15:15:53.750 ,3,1,,0,0.,4.8,0.,4.8,,0,0.,4.8,10.,4.8
1979-03-09 15:15:58.550 ,7,1,,0,0.,4.8,0.,4.8,,0,0.,4.8,7.,4.8
1979-03-09 15:16:03.350 ,7,1,,0,0.,4.8,0.,4.8,,0,0.,4.8,15.,4.8
1979-03-09 15:16:08.150 ,7,1,,0,1.,4.8,0.,4.8,,0,0.,4.8,5.,4.8
1979-03-09 15:16:12.950 ,7,1,,0,8.,4.8,0.,4.8,,0,0.,4.8,1.,4.8
1979-03-09 15:16:17.750 ,7,1,,0,2.,4.8,0.,4.8,,0,0.,4.8,0.,4.8
1979-03-09 15:16:22.550 ,4,1,,0,5.,4.8,1.,4.8,,0,0.,4.8,1.,4.8
1979-03-09 15:16:27.350 ,4,1,,0,13.,4.8,5.,4.8,,0,0.,4.8,6.,4.8
1979-03-09 15:16:32.150 ,4,1,,0,26.,4.8,8.,4.8,,0,0.,4.8,18.,4.8
1979-03-09 15:16:36.950 ,4,1,,0,0.,4.8,0.,4.8,,0,0.,4.8,14.,4.8
1979-03-09 15:16:41.750 ,4,1,,0,0.,4.8,0.,4.8,,0,0.,4.8,8.,4.8
1979-03-09 15:16:46.550 ,0,1,,0,0.,4.8,0.,4.8,,0,0.,4.8,13.,4.8
1979-03-09 15:16:51.350 ,0,1,,0,0.,4.8,0.,4.8,,0,0.,4.8,8.,4.8
1979-03-09 15:16:56.150 ,0,1,,0,5.,4.8,2.,4.8,,0,0.,4.8,6.,4.8
1979-03-09 15:17:00.950 ,0,1,,0,2.,4.8,0.,4.8,,0,0.,4.8,2.,4.8
1979-03-09 15:17:05.750 ,0,1,,0,5.,4.8,1.,4.8,,0,0.,4.8,2.,4.8
1979-03-09 15:17:10.550 ,3,1,,0,4.,4.8,1.,4.8,,0,0.,4.8,1.,4.8
1979-03-09 15:17:15.350 ,3,1,,0,11.,4.8,4.,4.8,,0,0.,4.8,2.,4.8
1979-03-09 15:17:20.150 ,3,1,,0,19.,4.8,3.,4.8,,0,0.,4.8,3.,4.8
1979-03-09 15:17:24.950 ,3,1,,0,0.,4.8,0.,4.8,,0,0.,4.8,14.,4.8
1979-03-09 15:17:29.750 ,3,1,,0,1.,4.8,0.,4.8,,0,0.,4.8,13.,4.8
1979-03-09 15:17:34.550 ,7,1,,0,0.,4.8,0.,4.8,,0,0.,4.8,10.,4.8
1979-03-09 15:17:39.350 ,7,1,,0,0.,4.8,0.,4.8,,0,0.,4.8,14.,4.8
1979-03-09 15:17:44.150 ,7,1,,0,3.,4.8,0.,4.8,,0,0.,4.8,5.,4.8
1979-03-09 15:17:48.950 ,7,1,,0,13.,4.8,0.,4.8,,0,0.,4.8,3.,4.8
1979-03-09 15:17:53.750 ,7,1,,0,6.,4.8,0.,4.8,,0,0.,4.8,0.,4.8
1979-03-09 15:17:58.550 ,4,1,,0,3.,4.8,0.,4.8,,0,0.,4.8,1.,4.8
1979-03-09 15:18:03.350 ,4,1,,0,14.,4.8,2.,4.8,,0,0.,4.8,9.,4.8
1979-03-09 15:18:08.150 ,4,1,,0,21.,4.8,7.,4.8,,0,0.,4.8,5.,4.8
1979-03-09 15:18:12.950 ,4,1,,0,0.,4.8,0.,4.8,,0,0.,4.8,6.,4.8
1979-03-09 15:18:17.750 ,4,1,,0,1.,4.8,0.,4.8,,0,0.,4.8,13.,4.8
1979-03-09 15:18:22.550 ,0,1,,0,0.,4.8,0.,4.8,,0,0.,4.8,13.,4.8
1979-03-09 15:18:27.350 ,0,1,,0,0.,4.8,0.,4.8,,0,0.,4.8,9.,4.8
1979-03-09 15:18:32.150 ,0,1,,0,3.,4.8,1.,4.8,,0,0.,4.8,4.,4.8
1979-03-09 15:18:36.950 ,0,1,,0,3.,4.8,0.,4.8,,0,0.,4.8,0.,4.8
1979-03-09 15:18:41.750 ,0,1,,0,5.,4.8,1.,4.8,,0,0.,4.8,2.,4.8
1979-03-09 15:18:46.550 ,3,1,,0,5.,4.8,0.,4.8,,0,0.,4.8,1.,4.8
1979-03-09 15:18:51.350 ,3,1,,0,10.,4.8,4.,4.8,,0,0.,4.8,3.,4.8
1979-03-09 15:18:56.150 ,3,1,,0,19.,4.8,3.,4.8,,0,0.,4.8,9.,4.8
1979-03-09 15:19:00.950 ,3,1,,0,0.,4.8,0.,4.8,,0,0.,4.8,11.,4.8
1979-03-09 15:19:05.750 ,3,1,,0,0.,4.8,0.,4.8,,0,0.,4.8,16.,4.8
1979-03-09 15:19:10.550 ,7,1,,0,0.,4.8,0.,4.8,,0,0.,4.8,8.,4.8
1979-03-09 15:19:15.350 ,7,1,,0,0.,4.8,0.,4.8,,0,0.,4.8,8.,4.8
1979-03-09 15:19:20.150 ,7,1,,0,2.,4.8,1.,4.8,,0,0.,4.8,3.,4.8
1979-03-09 15:19:24.950 ,7,1,,0,4.,4.8,0.,4.8,,0,0.,4.8,2.,4.8
1979-03-09 15:19:29.750 ,7,1,,0,3.,4.8,0.,4.8,,0,0.,4.8,0.,4.8
1979-03-09 15:19:34.550 ,4,1,,0,4.,4.8,1.,4.8,,0,0.,4.8,0.,4.8
1979-03-09 15:19:39.350 ,4,1,,0,15.,4.8,2.,4.8,,0,0.,4.8,4.,4.8
1979-03-09 15:19:44.150 ,4,1,,0,25.,4.8,5.,4.8,,0,0.,4.8,18.,4.8
1979-03-09 15:19:48.950 ,4,1,,0,0.,4.8,0.,4.8,,0,0.,4.8,12.,4.8
1979-03-09 15:19:53.750 ,4,1,,0,0.,4.8,0.,4.8,,0,0.,4.8,17.,4.8
1979-03-09 15:19:58.550 ,0,1,,0,0.,4.8,0.,4.8,,0,0.,4.8,11.,4.8
1979-03-09 15:20:03.350 ,0,1,,0,0.,4.8,0.,4.8,,0,0.,4.8,6.,4.8
1979-03-09 15:20:08.150 ,0,1,,0,1.,4.8,0.,4.8,,0,0.,4.8,0.,4.8
1979-03-09 15:20:12.950 ,0,1,,0,3.,4.8,0.,4.8,,0,0.,4.8,2.,4.8
1979-03-09 15:20:17.750 ,0,1,,0,3.,4.8,1.,4.8,,0,0.,4.8,1.,4.8
1979-03-09 15:20:22.550 ,3,1,,0,6.,4.8,2.,4.8,,0,0.,4.8,0.,4.8
1979-03-09 15:20:27.350 ,3,1,,0,7.,4.8,2.,4.8,,0,0.,4.8,4.,4.8
1979-03-09 15:20:32.150 ,3,1,,0,13.,4.8,1.,4.8,,0,0.,4.8,5.,4.8
1979-03-09 15:20:36.950 ,3,1,,0,0.,4.8,0.,4.8,,0,0.,4.8,13.,4.8
1979-03-09 15:20:41.750 ,3,1,,0,0.,4.8,0.,4.8,,0,0.,4.8,4.,4.8
1979-03-09 15:20:46.550 ,7,1,,0,0.,4.8,0.,4.8,,0,0.,4.8,10.,4.8
1979-03-09 15:20:51.350 ,7,1,,0,0.,4.8,0.,4.8,,0,0.,4.8,6.,4.8
1979-03-09 15:20:56.150 ,7,1,,0,7.,4.8,2.,4.8,,0,0.,4.8,6.,4.8
1979-03-09 15:21:00.950 ,7,1,,0,3.,4.8,0.,4.8,,0,0.,4.8,0.,4.8
1979-03-09 15:21:05.750 ,7,1,,0,1.,4.8,0.,4.8,,0,0.,4.8,0.,4.8
1979-03-09 15:21:10.550 ,4,1,,0,9.,4.8,1.,4.8,,0,0.,4.8,0.,4.8
1979-03-09 15:21:15.350 ,4,1,,0,16.,4.8,6.,4.8,,0,0.,4.8,4.,4.8
1979-03-09 15:21:20.150 ,4,1,,0,20.,4.8,3.,4.8,,0,0.,4.8,11.,4.8
1979-03-09 15:21:24.950 ,4,1,,0,0.,4.8,0.,4.8,,0,0.,4.8,10.,4.8
1979-03-09 15:21:29.750 ,4,1,,0,0.,4.8,0.,4.8,,0,0.,4.8,9.,4.8
1979-03-09 15:21:34.550 ,0,1,,0,0.,4.8,0.,4.8,,0,0.,4.8,12.,4.8
1979-03-09 15:21:39.350 ,0,1,,0,0.,4.8,0.,4.8,,0,0.,4.8,5.,4.8
1979-03-09 15:21:44.150 ,0,1,,0,1.,4.8,0.,4.8,,0,0.,4.8,7.,4.8
1979-03-09 15:21:48.950 ,0,1,,0,9.,4.8,3.,4.8,,0,0.,4.8,1.,4.8
1979-03-09 15:21:53.750 ,0,1,,0,4.,4.8,1.,4.8,,0,0.,4.8,0.,4.8
1979-03-09 15:21:58.550 ,3,1,,0,5.,4.8,1.,4.8,,0,0.,4.8,1.,4.8
1979-03-09 15:22:03.350 ,3,1,,0,14.,4.8,0.,4.8,,0,0.,4.8,7.,4.8
1979-03-09 15:22:08.150 ,3,1,,0,20.,4.8,3.,4.8,,0,0.,4.8,14.,4.8
1979-03-09 15:22:12.950 ,3,1,,0,0.,4.8,0.,4.8,,0,0.,4.8,16.,4.8
1979-03-09 15:22:17.750 ,3,1,,0,0.,4.8,0.,4.8,,0,0.,4.8,15.,4.8
1979-03-09 15:22:22.550 ,7,1,,0,0.,4.8,0.,4.8,,0,0.,4.8,8.,4.8
1979-03-09 15:22:27.350 ,7,1,,0,0.,4.8,0.,4.8,,0,0.,4.8,13.,4.8
1979-03-09 15:22:32.150 ,7,1,,0,1.,4.8,0.,4.8,,0,0.,4.8,2.,4.8
1979-03-09 15:22:36.950 ,7,1,,0,3.,4.8,1.,4.8,,0,0.,4.8,3.,4.8
1979-03-09 15:22:41.740 ,7,1,,0,4.,4.8,0.,4.8,,0,0.,4.8,0.,4.8
1979-03-09 15:22:46.550 ,4,1,,0,6.,4.8,0.,4.8,,0,0.,4.8,3.,4.8
1979-03-09 15:22:51.350 ,4,1,,0,10.,4.8,2.,4.8,,0,0.,4.8,9.,4.8
1979-03-09 15:22:56.150 ,4,1,,0,24.,4.8,7.,4.8,,0,0.,4.8,10.,4.8
1979-03-09 15:23:00.950 ,4,1,,0,0.,4.8,0.,4.8,,0,0.,4.8,15.,4.8
1979-03-09 15:23:05.740 ,4,1,,0,0.,4.8,0.,4.8,,0,0.,4.8,14.,4.8
1979-03-09 15:23:10.540 ,0,1,,0,0.,4.8,0.,4.8,,0,0.,4.8,10.,4.8
1979-03-09 15:23:15.340 ,0,1,,0,0.,4.8,0.,4.8,,0,0.,4.8,8.,4.8
1979-03-09 15:23:20.140 ,0,1,,0,2.,4.8,0.,4.8,,0,0.,4.8,4.,4.8
1979-03-09 15:23:24.940 ,0,1,,0,4.,4.8,2.,4.8,,0,0.,4.8,1.,4.8
1979-03-09 15:23:29.740 ,0,1,,0,5.,4.8,1.,4.8,,0,0.,4.8,0.,4.8
1979-03-09 15:23:34.540 ,3,1,,0,10.,4.8,1.,4.8,,0,0.,4.8,3.,4.8
1979-03-09 15:23:39.340 ,3,1,,0,13.,4.8,4.,4.8,,0,0.,4.8,4.,4.8
1979-03-09 15:23:44.140 ,3,1,,0,24.,4.8,4.,4.8,,0,0.,4.8,10.,4.8
1979-03-09 15:23:48.940 ,3,1,,0,0.,4.8,0.,4.8,,0,0.,4.8,10.,4.8
1979-03-09 15:23:53.740 ,3,1,,0,0.,4.8,0.,4.8,,0,0.,4.8,7.,4.8
1979-03-09 15:23:58.540 ,7,1,,0,0.,4.8,0.,4.8,,0,0.,4.8,10.,4.8
1979-03-09 15:24:03.340 ,7,1,,0,0.,4.8,0.,4.8,,0,0.,4.8,6.,4.8
1979-03-09 15:24:08.140 ,7,1,,0,3.,4.8,0.,4.8,,0,0.,4.8,5.,4.8
1979-03-09 15:24:12.940 ,7,1,,0,8.,4.8,0.,4.8,,0,0.,4.8,1.,4.8
1979-03-09 15:24:17.740 ,7,1,,0,6.,4.8,0.,4.8,,0,0.,4.8,0.,4.8
1979-03-09 15:24:22.540 ,4,1,,0,7.,4.8,1.,4.8,,0,0.,4.8,1.,4.8
1979-03-09 15:24:27.340 ,4,1,,0,9.,4.8,2.,4.8,,0,0.,4.8,8.,4.8
1979-03-09 15:24:32.140 ,4,1,,0,18.,4.8,2.,4.8,,0,0.,4.8,9.,4.8
1979-03-09 15:24:36.940 ,4,1,,0,0.,4.8,0.,4.8,,0,0.,4.8,10.,4.8
1979-03-09 15:24:41.740 ,4,1,,0,0.,4.8,0.,4.8,,0,0.,4.8,13.,4.8
1979-03-09 15:24:46.540 ,0,1,,0,0.,4.8,0.,4.8,,0,0.,4.8,11.,4.8
1979-03-09 15:24:51.340 ,0,1,,0,0.,4.8,0.,4.8,,0,0.,4.8,4.,4.8
1979-03-09 15:24:56.140 ,0,1,,0,1.,4.8,0.,4.8,,0,0.,4.8,3.,4.8
1979-03-09 15:25:00.940 ,0,1,,0,6.,4.8,1.,4.8,,0,0.,4.8,2.,4.8
1979-03-09 15:25:05.740 ,0,1,,0,4.,4.8,0.,4.8,,0,0.,4.8,1.,4.8
1979-03-09 15:25:10.540 ,3,1,,0,4.,4.8,1.,4.8,,0,0.,4.8,1.,4.8
1979-03-09 15:25:15.340 ,3,1,,0,18.,4.8,4.,4.8,,0,0.,4.8,5.,4.8
1979-03-09 15:25:20.140 ,3,1,,0,12.,4.8,1.,4.8,,0,0.,4.8,10.,4.8
1979-03-09 15:25:24.940 ,3,1,,0,0.,4.8,0.,4.8,,0,0.,4.8,9.,4.8
1979-03-09 15:25:29.740 ,3,1,,0,0.,4.8,0.,4.8,,0,0.,4.8,8.,4.8
1979-03-09 15:25:34.540 ,7,1,,0,0.,4.8,0.,4.8,,0,0.,4.8,10.,4.8
1979-03-09 15:25:39.340 ,7,1,,0,0.,4.8,0.,4.8,,0,0.,4.8,12.,4.8
1979-03-09 15:25:44.140 ,7,1,,0,1.,4.8,1.,4.8,,0,0.,4.8,1.,4.8
1979-03-09 15:25:48.940 ,7,1,,0,4.,4.8,0.,4.8,,0,0.,4.8,3.,4.8
1979-03-09 15:25:53.740 ,7,1,,0,2.,4.8,0.,4.8,,0,0.,4.8,0.,4.8
1979-03-09 15:25:58.540 ,4,1,,0,7.,4.8,0.,4.8,,0,0.,4.8,2.,4.8
1979-03-09 15:26:03.340 ,4,1,,0,14.,4.8,1.,4.8,,0,0.,4.8,4.,4.8
1979-03-09 15:26:08.140 ,4,1,,0,16.,4.8,1.,4.8,,0,0.,4.8,7.,4.8
1979-03-09 15:26:12.940 ,4,1,,0,1.,4.8,0.,4.8,,0,0.,4.8,11.,4.8
1979-03-09 15:26:17.740 ,4,1,,0,0.,4.8,0.,4.8,,0,0.,4.8,15.,4.8
1979-03-09 15:26:22.540 ,0,1,,0,0.,4.8,0.,4.8,,0,0.,4.8,11.,4.8
1979-03-09 15:26:27.340 ,0,1,,0,0.,4.8,0.,4.8,,0,0.,4.8,10.,4.8
1979-03-09 15:26:32.140 ,0,1,,0,0.,4.8,0.,4.8,,0,0.,4.8,3.,4.8
1979-03-09 15:26:36.940 ,0,1,,0,9.,4.8,2.,4.8,,0,0.,4.8,1.,4.8
1979-03-09 15:26:41.740 ,0,1,,0,4.,4.8,0.,4.8,,0,0.,4.8,1.,4.8
1979-03-09 15:26:46.540 ,3,1,,0,11.,4.8,1.,4.8,,0,0.,4.8,0.,4.8
1979-03-09 15:26:51.340 ,3,1,,0,7.,4.8,3.,4.8,,0,0.,4.8,7.,4.8
1979-03-09 15:26:56.140 ,3,1,,0,10.,4.8,2.,4.8,,0,0.,4.8,10.,4.8
1979-03-09 15:27:00.940 ,3,1,,0,0.,4.8,0.,4.8,,0,0.,4.8,10.,4.8
1979-03-09 15:27:05.740 ,3,1,,0,0.,4.8,0.,4.8,,0,0.,4.8,9.,4.8
1979-03-09 15:27:10.540 ,7,1,,0,0.,4.8,0.,4.8,,0,0.,4.8,12.,4.8
1979-03-09 15:27:15.340 ,7,1,,0,0.,4.8,0.,4.8,,0,0.,4.8,5.,4.8
1979-03-09 15:27:20.140 ,7,1,,0,2.,4.8,0.,4.8,,0,0.,4.8,3.,4.8
1979-03-09 15:27:24.940 ,7,1,,0,5.,4.8,0.,4.8,,0,0.,4.8,3.,4.8
1979-03-09 15:27:29.740 ,7,1,,0,5.,4.8,0.,4.8,,0,0.,4.8,0.,4.8
1979-03-09 15:27:34.540 ,4,1,,0,4.,4.8,0.,4.8,,0,0.,4.8,1.,4.8
1979-03-09 15:27:39.340 ,4,1,,0,11.,4.8,3.,4.8,,0,0.,4.8,9.,4.8
1979-03-09 15:27:44.140 ,4,1,,0,6.,4.8,2.,4.8,,0,0.,4.8,12.,4.8
1979-03-09 15:27:48.940 ,4,1,,0,0.,4.8,0.,4.8,,0,0.,4.8,11.,4.8
1979-03-09 15:27:53.740 ,4,1,,0,0.,4.8,0.,4.8,,0,0.,4.8,13.,4.8
1979-03-09 15:27:58.540 ,0,1,,0,0.,4.8,0.,4.8,,0,0.,4.8,10.,4.8
1979-03-09 15:28:03.340 ,0,1,,0,0.,4.8,0.,4.8,,0,0.,4.8,8.,4.8
1979-03-09 15:28:08.140 ,0,1,,0,3.,4.8,0.,4.8,,0,0.,4.8,8.,4.8
1979-03-09 15:28:12.940 ,0,1,,0,4.,4.8,1.,4.8,,0,0.,4.8,6.,4.8
1979-03-09 15:28:17.740 ,0,1,,0,7.,4.8,2.,4.8,,0,0.,4.8,0.,4.8
1979-03-09 15:28:22.540 ,3,1,,0,5.,4.8,1.,4.8,,0,0.,4.8,2.,4.8
1979-03-09 15:28:27.340 ,3,1,,0,7.,4.8,0.,4.8,,0,0.,4.8,3.,4.8
1979-03-09 15:28:32.140 ,3,1,,0,12.,4.8,4.,4.8,,0,0.,4.8,9.,4.8
1979-03-09 15:28:36.940 ,3,1,,0,0.,4.8,0.,4.8,,0,0.,4.8,13.,4.8
1979-03-09 15:28:41.740 ,3,1,,0,0.,4.8,0.,4.8,,0,0.,4.8,10.,4.8
1979-03-09 15:28:46.540 ,7,1,,0,0.,4.8,0.,4.8,,0,0.,4.8,10.,4.8
1979-03-09 15:28:51.340 ,7,1,,0,0.,4.8,0.,4.8,,0,0.,4.8,7.,4.8
1979-03-09 15:28:56.140 ,7,1,,0,0.,4.8,0.,4.8,,0,0.,4.8,3.,4.8
1979-03-09 15:29:00.940 ,7,1,,0,4.,4.8,0.,4.8,,0,0.,4.8,0.,4.8
1979-03-09 15:29:05.740 ,7,1,,0,3.,4.8,0.,4.8,,0,0.,4.8,0.,4.8
1979-03-09 15:29:10.540 ,0,0,,0,4.,4.8,0.,4.8,,0,0.,4.8,1.,4.8
1979-03-09 15:29:15.340 ,0,0,,0,8.,4.8,3.,4.8,,0,0.,4.8,5.,4.8
1979-03-09 15:29:20.140 ,0,0,,0,16.,4.8,1.,4.8,,0,0.,4.8,2.,4.8
1979-03-09 15:29:24.940 ,0,0,,0,,0,,0,,0,,0,,0
1979-03-09 15:29:29.740 ,0,0,,0,,0,,0,,0,,0,,0
1979-03-09 15:30:11.740 ,0,0,,0,,0,,0,,0,,0,,0
1979-03-09 15:30:16.540 ,0,0,,0,,0,,0,,0,,0,,0
1979-03-09 15:30:21.340 ,0,0,,0,,0,,0,,0,,0,,0
1979-03-09 15:30:26.140 ,0,0,,0,0.,4.8,0.,4.8,,0,0.,4.8,11.,4.8
1979-03-09 15:30:30.940 ,0,0,,0,0.,4.8,0.,4.8,,0,0.,4.8,13.,4.8
1979-03-09 15:30:22.540 ,7,1,,0,0.,4.8,0.,4.8,,0,0.,4.8,15.,4.8
1979-03-09 15:30:27.340 ,7,1,,0,0.,4.8,0.,4.8,,0,0.,4.8,7.,4.8
1979-03-09 15:30:32.140 ,7,1,,0,0.,4.8,0.,4.8,,0,0.,4.8,4.,4.8
1979-03-09 15:30:36.940 ,7,1,,0,7.,4.8,0.,4.8,,0,0.,4.8,0.,4.8
1979-03-09 15:30:41.740 ,7,1,,0,5.,4.8,0.,4.8,,0,0.,4.8,0.,4.8
1979-03-09 15:30:46.540 ,4,1,,0,8.,4.8,0.,4.8,,0,0.,4.8,2.,4.8